{"data":{"norad_id":63324,"epoch":"2026-09-20T22:00:03.000096Z","epoch_age_seconds":122856,"freshness":"FRESH","line1":"1 63324U 25057T   26263.91670139 -.00023927  00000+0 -86218-3 0  9994","line2":"2 63324  43.0037   7.8661 0001496 273.1173 315.0928 15.27601353  5713","mean_motion":15.27601353,"eccentricity":0.0001496,"inclination_deg":43.0037,"raan_deg":7.8661,"arg_perigee_deg":273.1173,"mean_anomaly_deg":315.0928,"bstar":-0.00086218,"rev_number":571,"period_min":94.265431041419,"perigee_km":481.95873434587,"apogee_km":484.01158209561,"semimajor_km":6861.1221582207,"source":"CELESTRAK","updated_at":"2026-09-21T09:00:34.970532Z"}}